IRIDIUM 105

Last updated on Sun Jun 21 2026 00:03:13 GMT+0000 (Coordinated Universal Time)

1 41921U 17003E 26171.43469079 .00000181 00000+0 57451-4 0 9992 2 41921 86.3962 55.5125 0002510 82.1327 278.0153 14.34217399495600
UTC large
Height (km)
Speed (km/s)
/
Latitude / Longitude
Inclination (degrees)
Orbital Period (minutes)
Azimuth
Elevation
Range (km)
Doppler Factor

Next 0 passes for location: London (51.5072 / 0.1276)

No passes found over London.
IRIDIUM 105